Time,TemperatureF,DewpointF,PressureIn,WindDirection,WindDirectionDegrees,WindSpeedMPH,WindSpeedGustMPH,Humidity,HourlyPrecipIn,Conditions,Clouds,dailyrainin,SoftwareType,DateUTC
2013-02-24 00:01:00,45.4,31.0,28.44,ESE,112,3.5,8.9,58,0.00,,,0.00,Rainwise IP-100,2013-02-24 06:01:00,
2013-02-24 00:06:00,45.2,31.0,28.44,ESE,112,2.1,9.8,58,0.00,,,0.00,Rainwise IP-100,2013-02-24 06:06:00,
2013-02-24 00:11:00,44.9,32.0,28.44,East,90,2.1,11.2,59,0.00,,,0.00,Rainwise IP-100,2013-02-24 06:11:00,
2013-02-24 00:16:00,44.7,32.0,28.43,ESE,112,7.7,9.6,59,0.00,,,0.00,Rainwise IP-100,2013-02-24 06:16:00,
2013-02-24 00:21:00,44.5,32.0,28.43,SE,135,5.4,10.3,60,0.00,,,0.00,Rainwise IP-100,2013-02-24 06:21:00,
2013-02-24 00:26:00,44.4,31.0,28.43,ESE,112,4.4,9.1,60,0.00,,,0.00,Rainwise IP-100,2013-02-24 06:26:00,
2013-02-24 00:31:00,44.2,32.0,28.43,SE,135,1.9,12.1,61,0.00,,,0.00,Rainwise IP-100,2013-02-24 06:31:00,
2013-02-24 00:36:00,44.1,32.0,28.43,SE,135,2.8,12.4,61,0.00,,,0.00,Rainwise IP-100,2013-02-24 06:36:00,
2013-02-24 00:41:00,43.9,32.0,28.44,SE,135,5.1,7.5,62,0.00,,,0.00,Rainwise IP-100,2013-02-24 06:41:00,
2013-02-24 00:46:00,43.8,32.0,28.43,SSE,157,5.8,9.1,62,0.00,,,0.00,Rainwise IP-100,2013-02-24 06:46:00,
2013-02-24 00:51:00,43.8,32.0,28.43,ESE,112,4.7,9.8,62,0.00,,,0.00,Rainwise IP-100,2013-02-24 06:51:00,
2013-02-24 00:56:00,43.8,32.0,28.43,East,90,3.5,11.4,63,0.00,,,0.00,Rainwise IP-100,2013-02-24 06:56:00,
2013-02-24 01:01:00,43.8,32.0,28.43,SE,135,2.1,8.2,63,0.00,,,0.00,Rainwise IP-100,2013-02-24 07:01:00,
2013-02-24 01:06:00,43.7,32.0,28.43,SE,135,4.4,7.9,63,0.00,,,0.00,Rainwise IP-100,2013-02-24 07:06:00,
2013-02-24 01:09:00,43.6,32.0,28.43,ESE,112,4.9,7.9,63,0.00,,,0.00,Rainwise IP-100,2013-02-24 07:09:00,
2013-02-24 01:14:00,43.5,32.0,28.42,ESE,112,7.2,7.2,63,0.00,,,0.00,Rainwise IP-100,2013-02-24 07:14:00,
2013-02-24 01:19:00,43.5,32.0,28.42,SE,135,7.5,7.9,63,0.00,,,0.00,Rainwise IP-100,2013-02-24 07:19:00,
2013-02-24 01:24:00,43.5,33.0,28.42,ESE,112,6.8,10.3,64,0.00,,,0.00,Rainwise IP-100,2013-02-24 07:24:00,
2013-02-24 01:29:00,43.4,32.0,28.42,SE,135,5.4,7.2,64,0.00,,,0.00,Rainwise IP-100,2013-02-24 07:29:00,
2013-02-24 01:34:00,43.2,32.0,28.42,SE,135,4.0,6.8,64,0.00,,,0.00,Rainwise IP-100,2013-02-24 07:34:00,
2013-02-24 01:39:00,43.1,32.0,28.42,SE,135,2.8,9.3,64,0.00,,,0.00,Rainwise IP-100,2013-02-24 07:39:00,
2013-02-24 01:44:00,43.1,32.0,28.42,SE,135,4.0,8.2,65,0.00,,,0.00,Rainwise IP-100,2013-02-24 07:44:00,
2013-02-24 01:49:00,43.1,32.0,28.42,SE,135,4.0,8.6,65,0.00,,,0.00,Rainwise IP-100,2013-02-24 07:49:00,
2013-02-24 01:54:00,43.0,32.0,28.42,ESE,112,4.4,7.2,65,0.00,,,0.00,Rainwise IP-100,2013-02-24 07:54:00,
2013-02-24 01:59:00,42.8,32.0,28.41,East,90,2.3,8.4,65,0.00,,,0.00,Rainwise IP-100,2013-02-24 07:59:00,
2013-02-24 02:04:00,42.8,32.0,28.41,East,90,2.6,8.2,65,0.00,,,0.00,Rainwise IP-100,2013-02-24 08:04:00,
2013-02-24 02:09:00,42.8,32.0,28.42,ESE,112,3.3,8.2,65,0.00,,,0.00,Rainwise IP-100,2013-02-24 08:09:00,
2013-02-24 02:14:00,42.6,32.0,28.41,East,90,3.5,6.8,66,0.00,,,0.00,Rainwise IP-100,2013-02-24 08:14:00,
2013-02-24 02:19:00,42.5,32.0,28.41,SE,135,6.5,7.7,66,0.00,,,0.00,Rainwise IP-100,2013-02-24 08:19:00,
2013-02-24 02:24:00,42.5,32.0,28.40,ESE,112,7.5,8.2,66,0.00,,,0.00,Rainwise IP-100,2013-02-24 08:24:00,
2013-02-24 02:29:00,42.5,32.0,28.40,SE,135,5.6,9.8,66,0.00,,,0.00,Rainwise IP-100,2013-02-24 08:29:00,
2013-02-24 02:34:00,42.4,32.0,28.40,SE,135,6.3,8.6,66,0.00,,,0.00,Rainwise IP-100,2013-02-24 08:34:00,
2013-02-24 02:39:00,42.3,32.0,28.40,SE,135,3.7,7.5,66,0.00,,,0.00,Rainwise IP-100,2013-02-24 08:39:00,
2013-02-24 02:44:00,42.3,32.0,28.40,SE,135,5.1,9.8,67,0.00,,,0.00,Rainwise IP-100,2013-02-24 08:44:00,
2013-02-24 02:46:00,42.3,32.0,28.40,SE,135,4.7,9.8,67,0.00,,,0.00,Rainwise IP-100,2013-02-24 08:46:00,
2013-02-24 02:51:00,42.2,32.0,28.40,SSE,157,2.8,8.9,67,0.00,,,0.00,Rainwise IP-100,2013-02-24 08:51:00,
2013-02-24 02:56:00,42.0,32.0,28.40,SE,135,4.0,8.9,67,0.00,,,0.00,Rainwise IP-100,2013-02-24 08:56:00,
2013-02-24 03:01:00,42.0,32.0,28.40,ESE,112,7.5,8.4,67,0.00,,,0.00,Rainwise IP-100,2013-02-24 09:01:00,
2013-02-24 03:06:00,42.1,32.0,28.41,SE,135,3.3,7.5,67,0.00,,,0.00,Rainwise IP-100,2013-02-24 09:06:00,
2013-02-24 03:11:00,42.1,32.0,28.41,SE,135,1.9,6.3,67,0.00,,,0.00,Rainwise IP-100,2013-02-24 09:11:00,
2013-02-24 03:16:00,42.1,32.0,28.41,ESE,112,4.2,6.5,67,0.00,,,0.00,Rainwise IP-100,2013-02-24 09:16:00,
2013-02-24 03:21:00,42.0,32.0,28.40,ESE,112,2.3,5.4,67,0.00,,,0.00,Rainwise IP-100,2013-02-24 09:21:00,
2013-02-24 03:26:00,41.9,32.0,28.41,SE,135,5.6,5.8,67,0.00,,,0.00,Rainwise IP-100,2013-02-24 09:26:00,
2013-02-24 03:31:00,41.7,32.0,28.41,ESE,112,1.4,5.6,67,0.00,,,0.00,Rainwise IP-100,2013-02-24 09:31:00,
2013-02-24 03:36:00,41.6,32.0,28.41,SE,135,2.8,4.9,68,0.00,,,0.00,Rainwise IP-100,2013-02-24 09:36:00,
2013-02-24 03:41:00,41.4,32.0,28.41,SE,135,2.8,3.7,68,0.00,,,0.00,Rainwise IP-100,2013-02-24 09:41:00,
2013-02-24 03:46:00,41.1,32.0,28.41,SE,135,1.6,4.2,68,0.00,,,0.00,Rainwise IP-100,2013-02-24 09:46:00,
2013-02-24 03:51:00,40.8,32.0,28.41,SE,135,1.9,2.8,69,0.00,,,0.00,Rainwise IP-100,2013-02-24 09:51:00,
2013-02-24 03:56:00,40.6,32.0,28.40,SE,135,1.4,3.7,69,0.00,,,0.00,Rainwise IP-100,2013-02-24 09:56:00,
2013-02-24 04:01:00,40.4,32.0,28.41,ESE,112,1.4,3.5,70,0.00,,,0.00,Rainwise IP-100,2013-02-24 10:01:00,
2013-02-24 04:06:00,40.3,32.0,28.40,SE,135,1.4,4.2,70,0.00,,,0.00,Rainwise IP-100,2013-02-24 10:06:00,
2013-02-24 04:11:00,40.3,32.0,28.40,ESE,112,1.9,3.0,71,0.00,,,0.00,Rainwise IP-100,2013-02-24 10:11:00,
2013-02-24 04:16:00,40.2,32.0,28.40,ESE,112,1.9,3.5,71,0.00,,,0.00,Rainwise IP-100,2013-02-24 10:16:00,
2013-02-24 04:21:00,40.3,32.0,28.40,ESE,112,2.6,4.0,71,0.00,,,0.00,Rainwise IP-100,2013-02-24 10:21:00,
2013-02-24 04:26:00,40.4,32.0,28.40,East,90,3.5,3.7,71,0.00,,,0.00,Rainwise IP-100,2013-02-24 10:26:00,
2013-02-24 04:31:00,40.5,32.0,28.41,ESE,112,1.9,4.7,71,0.00,,,0.00,Rainwise IP-100,2013-02-24 10:31:00,
2013-02-24 04:36:00,40.6,32.0,28.41,ESE,112,1.9,5.6,71,0.00,,,0.00,Rainwise IP-100,2013-02-24 10:36:00,
2013-02-24 04:41:00,40.8,32.0,28.40,ESE,112,2.8,4.9,71,0.00,,,0.00,Rainwise IP-100,2013-02-24 10:41:00,
2013-02-24 04:46:00,40.9,32.0,28.40,ESE,112,1.6,6.3,70,0.00,,,0.00,Rainwise IP-100,2013-02-24 10:46:00,
2013-02-24 04:51:00,40.9,32.0,28.40,SE,135,2.3,6.5,70,0.00,,,0.00,Rainwise IP-100,2013-02-24 10:51:00,
2013-02-24 04:56:00,40.7,32.0,28.40,ESE,112,4.0,5.6,70,0.00,,,0.00,Rainwise IP-100,2013-02-24 10:56:00,
2013-02-24 05:01:00,40.6,32.0,28.40,ESE,112,2.6,5.4,71,0.00,,,0.00,Rainwise IP-100,2013-02-24 11:01:00,
2013-02-24 05:06:00,40.6,32.0,28.40,ESE,112,4.2,5.8,71,0.00,,,0.00,Rainwise IP-100,2013-02-24 11:06:00,
2013-02-24 05:11:00,40.7,32.0,28.40,SE,135,3.5,6.5,71,0.00,,,0.00,Rainwise IP-100,2013-02-24 11:11:00,
2013-02-24 05:16:00,40.8,32.0,28.40,ESE,112,4.7,8.4,71,0.00,,,0.00,Rainwise IP-100,2013-02-24 11:16:00,
2013-02-24 05:21:00,40.9,32.0,28.40,ESE,112,2.6,6.8,71,0.00,,,0.00,Rainwise IP-100,2013-02-24 11:21:00,
2013-02-24 05:26:00,40.9,32.0,28.40,East,90,1.4,7.9,71,0.00,,,0.00,Rainwise IP-100,2013-02-24 11:26:00,
2013-02-24 05:31:00,41.0,32.0,28.40,SSE,157,5.8,8.2,71,0.00,,,0.00,Rainwise IP-100,2013-02-24 11:31:00,
2013-02-24 05:36:00,41.1,32.0,28.40,SSE,157,4.9,9.1,71,0.00,,,0.00,Rainwise IP-100,2013-02-24 11:36:00,
2013-02-24 05:41:00,41.0,32.0,28.40,SSE,157,3.5,7.5,71,0.00,,,0.00,Rainwise IP-100,2013-02-24 11:41:00,
2013-02-24 05:46:00,40.8,33.0,28.40,SE,135,4.4,5.8,72,0.00,,,0.00,Rainwise IP-100,2013-02-24 11:46:00,
2013-02-24 05:51:00,40.6,33.0,28.40,East,90,3.7,5.1,72,0.00,,,0.00,Rainwise IP-100,2013-02-24 11:51:00,
2013-02-24 05:56:00,40.6,33.0,28.40,ESE,112,5.4,7.7,73,0.00,,,0.00,Rainwise IP-100,2013-02-24 11:56:00,
2013-02-24 06:01:00,40.7,33.0,28.39,ESE,112,2.6,6.5,73,0.00,,,0.00,Rainwise IP-100,2013-02-24 12:01:00,
2013-02-24 06:06:00,40.6,33.0,28.40,ESE,112,4.0,7.5,74,0.00,,,0.00,Rainwise IP-100,2013-02-24 12:06:00,
2013-02-24 06:11:00,40.4,33.0,28.40,SE,135,4.7,6.3,74,0.00,,,0.00,Rainwise IP-100,2013-02-24 12:11:00,
2013-02-24 06:16:00,40.5,33.0,28.40,SE,135,4.2,6.5,74,0.00,,,0.00,Rainwise IP-100,2013-02-24 12:16:00,
2013-02-24 06:21:00,40.7,33.0,28.40,ESE,112,4.2,5.8,74,0.00,,,0.00,Rainwise IP-100,2013-02-24 12:21:00,
2013-02-24 06:26:00,41.2,33.0,28.40,East,90,3.5,7.2,74,0.00,,,0.00,Rainwise IP-100,2013-02-24 12:26:00,
2013-02-24 06:31:00,41.6,35.0,28.39,East,90,2.6,6.8,74,0.00,,,0.00,Rainwise IP-100,2013-02-24 12:31:00,
2013-02-24 06:36:00,41.9,35.0,28.40,ESE,112,2.8,7.5,74,0.00,,,0.00,Rainwise IP-100,2013-02-24 12:36:00,
2013-02-24 06:41:00,42.1,35.0,28.39,ESE,112,4.4,6.1,74,0.00,,,0.00,Rainwise IP-100,2013-02-24 12:41:00,
2013-02-24 06:46:00,42.0,35.0,28.39,SSE,157,6.1,9.3,74,0.00,,,0.00,Rainwise IP-100,2013-02-24 12:46:00,
2013-02-24 06:51:00,41.9,35.0,28.39,SE,135,3.3,6.5,74,0.00,,,0.00,Rainwise IP-100,2013-02-24 12:51:00,
2013-02-24 06:56:00,41.5,35.0,28.39,ESE,112,5.6,7.2,74,0.00,,,0.00,Rainwise IP-100,2013-02-24 12:56:00,
2013-02-24 07:01:00,41.4,33.0,28.38,SE,135,4.0,8.9,74,0.00,,,0.00,Rainwise IP-100,2013-02-24 13:01:00,
2013-02-24 07:06:00,41.7,35.0,28.38,ESE,112,4.2,8.2,75,0.00,,,0.00,Rainwise IP-100,2013-02-24 13:06:00,
2013-02-24 07:11:00,42.4,35.0,28.39,ESE,112,5.8,8.6,74,0.00,,,0.00,Rainwise IP-100,2013-02-24 13:11:00,
2013-02-24 07:16:00,43.1,35.0,28.39,SE,135,5.1,10.0,73,0.00,,,0.00,Rainwise IP-100,2013-02-24 13:16:00,
2013-02-24 07:21:00,43.4,35.0,28.39,ESE,112,3.3,11.7,73,0.00,,,0.00,Rainwise IP-100,2013-02-24 13:21:00,
2013-02-24 07:26:00,43.8,36.0,28.39,ESE,112,3.0,14.0,72,0.00,,,0.00,Rainwise IP-100,2013-02-24 13:26:00,
2013-02-24 07:31:00,44.1,36.0,28.39,SE,135,6.5,11.0,72,0.00,,,0.00,Rainwise IP-100,2013-02-24 13:31:00,
2013-02-24 07:36:00,44.5,36.0,28.39,SE,135,3.3,10.0,71,0.00,,,0.00,Rainwise IP-100,2013-02-24 13:36:00,
2013-02-24 07:41:00,44.6,36.0,28.40,SE,135,5.1,10.7,71,0.00,,,0.00,Rainwise IP-100,2013-02-24 13:41:00,
2013-02-24 07:46:00,44.6,36.0,28.40,SSE,157,3.7,10.5,71,0.00,,,0.00,Rainwise IP-100,2013-02-24 13:46:00,
2013-02-24 07:51:00,44.4,36.0,28.40,ESE,112,5.1,10.3,71,0.00,,,0.00,Rainwise IP-100,2013-02-24 13:51:00,
2013-02-24 07:56:00,44.3,36.0,28.40,SSE,157,4.4,9.3,71,0.00,,,0.00,Rainwise IP-100,2013-02-24 13:56:00,
2013-02-24 08:01:00,44.3,36.0,28.40,ESE,112,4.2,7.2,71,0.00,,,0.00,Rainwise IP-100,2013-02-24 14:01:00,
2013-02-24 08:06:00,44.5,36.0,28.40,SE,135,2.1,8.4,71,0.00,,,0.00,Rainwise IP-100,2013-02-24 14:06:00,
2013-02-24 08:11:00,44.8,36.0,28.40,SSE,157,3.3,7.7,70,0.00,,,0.00,Rainwise IP-100,2013-02-24 14:11:00,
2013-02-24 08:16:00,45.3,36.0,28.40,ESE,112,7.7,9.6,70,0.00,,,0.00,Rainwise IP-100,2013-02-24 14:16:00,
2013-02-24 08:21:00,45.8,36.0,28.40,SE,135,4.2,9.3,69,0.00,,,0.00,Rainwise IP-100,2013-02-24 14:21:00,
2013-02-24 08:26:00,46.2,36.0,28.40,SSE,157,4.0,11.4,68,0.00,,,0.00,Rainwise IP-100,2013-02-24 14:26:00,
2013-02-24 08:31:00,46.6,37.0,28.40,SE,135,4.7,10.5,68,0.00,,,0.00,Rainwise IP-100,2013-02-24 14:31:00,
2013-02-24 08:36:00,47.3,37.0,28.40,SE,135,5.1,8.9,67,0.00,,,0.00,Rainwise IP-100,2013-02-24 14:36:00,
2013-02-24 08:41:00,48.0,37.0,28.40,East,90,4.4,9.6,66,0.00,,,0.00,Rainwise IP-100,2013-02-24 14:41:00,
2013-02-24 08:46:00,48.6,38.0,28.40,East,90,6.5,12.8,66,0.00,,,0.00,Rainwise IP-100,2013-02-24 14:46:00,
2013-02-24 08:51:00,49.0,38.0,28.40,SE,135,6.5,15.6,65,0.00,,,0.00,Rainwise IP-100,2013-02-24 14:51:00,
2013-02-24 08:56:00,49.1,38.0,28.41,ESE,112,8.9,13.1,65,0.00,,,0.00,Rainwise IP-100,2013-02-24 14:56:00,
2013-02-24 09:01:00,49.2,38.0,28.41,ESE,112,5.4,13.5,65,0.00,,,0.00,Rainwise IP-100,2013-02-24 15:01:00,
2013-02-24 09:06:00,49.7,38.0,28.40,ESE,112,4.0,14.0,65,0.00,,,0.00,Rainwise IP-100,2013-02-24 15:06:00,
2013-02-24 09:11:00,50.3,39.0,28.40,SSE,157,8.6,10.5,64,0.00,,,0.00,Rainwise IP-100,2013-02-24 15:11:00,
2013-02-24 09:16:00,50.8,39.0,28.40,ESE,112,5.4,10.0,64,0.00,,,0.00,Rainwise IP-100,2013-02-24 15:16:00,
2013-02-24 09:21:00,51.5,40.0,28.41,East,90,3.3,12.1,63,0.00,,,0.00,Rainwise IP-100,2013-02-24 15:21:00,
2013-02-24 09:26:00,52.2,39.0,28.41,ESE,112,7.0,11.4,62,0.00,,,0.00,Rainwise IP-100,2013-02-24 15:26:00,
2013-02-24 09:31:00,53.0,40.0,28.40,SE,135,9.3,11.2,62,0.00,,,0.00,Rainwise IP-100,2013-02-24 15:31:00,
2013-02-24 09:36:00,53.8,41.0,28.40,SSE,157,7.0,13.3,61,0.00,,,0.00,Rainwise IP-100,2013-02-24 15:36:00,
2013-02-24 09:41:00,54.4,41.0,28.40,South,180,5.4,14.7,60,0.00,,,0.00,Rainwise IP-100,2013-02-24 15:41:00,
2013-02-24 09:46:00,54.8,41.0,28.40,SE,135,8.6,18.2,59,0.00,,,0.00,Rainwise IP-100,2013-02-24 15:46:00,
2013-02-24 09:51:00,55.0,41.0,28.40,SSE,157,6.8,18.4,59,0.00,,,0.00,Rainwise IP-100,2013-02-24 15:51:00,
2013-02-24 09:56:00,55.2,41.0,28.39,South,180,5.1,18.0,59,0.00,,,0.00,Rainwise IP-100,2013-02-24 15:56:00,
2013-02-24 10:01:00,55.7,41.0,28.39,SSE,157,13.1,15.4,58,0.00,,,0.00,Rainwise IP-100,2013-02-24 16:01:00,
2013-02-24 10:06:00,56.3,41.0,28.39,ESE,112,11.4,17.3,57,0.00,,,0.00,Rainwise IP-100,2013-02-24 16:06:00,
2013-02-24 10:11:00,56.7,41.0,28.39,SE,135,13.3,21.5,56,0.00,,,0.00,Rainwise IP-100,2013-02-24 16:11:00,
2013-02-24 10:16:00,56.9,41.0,28.39,South,180,12.4,18.0,56,0.00,,,0.00,Rainwise IP-100,2013-02-24 16:16:00,
2013-02-24 10:21:00,57.4,41.0,28.39,ESE,112,7.0,18.9,55,0.00,,,0.00,Rainwise IP-100,2013-02-24 16:21:00,
2013-02-24 10:26:00,58.0,41.0,28.38,SSE,157,6.5,18.4,54,0.00,,,0.00,Rainwise IP-100,2013-02-24 16:26:00,
2013-02-24 10:31:00,58.5,42.0,28.38,SE,135,11.0,17.5,53,0.00,,,0.00,Rainwise IP-100,2013-02-24 16:31:00,
2013-02-24 10:36:00,59.1,42.0,28.38,South,180,8.6,17.5,53,0.00,,,0.00,Rainwise IP-100,2013-02-24 16:36:00,
2013-02-24 10:41:00,59.2,42.0,28.38,SSE,157,11.7,21.0,53,0.00,,,0.00,Rainwise IP-100,2013-02-24 16:41:00,
2013-02-24 10:46:00,59.5,42.0,28.38,ESE,112,7.0,17.7,52,0.00,,,0.00,Rainwise IP-100,2013-02-24 16:46:00,
2013-02-24 10:51:00,59.8,42.0,28.38,SSE,157,8.2,19.1,52,0.00,,,0.00,Rainwise IP-100,2013-02-24 16:51:00,
2013-02-24 10:56:00,60.2,42.0,28.38,SSE,157,9.6,18.7,51,0.00,,,0.00,Rainwise IP-100,2013-02-24 16:56:00,
2013-02-24 11:01:00,60.9,42.0,28.37,SSE,157,6.1,19.6,50,0.00,,,0.00,Rainwise IP-100,2013-02-24 17:01:00,
2013-02-24 11:06:00,61.2,41.0,28.37,SSE,157,9.1,19.6,49,0.00,,,0.00,Rainwise IP-100,2013-02-24 17:06:00,
2013-02-24 11:11:00,61.5,42.0,28.37,ESE,112,6.3,15.6,49,0.00,,,0.00,Rainwise IP-100,2013-02-24 17:11:00,
2013-02-24 11:16:00,62.0,42.0,28.36,SSE,157,5.6,17.5,48,0.00,,,0.00,Rainwise IP-100,2013-02-24 17:16:00,
2013-02-24 11:21:00,62.3,42.0,28.36,SE,135,19.1,19.1,47,0.00,,,0.00,Rainwise IP-100,2013-02-24 17:21:00,
2013-02-24 11:26:00,62.4,41.0,28.37,ESE,112,10.5,19.6,46,0.00,,,0.00,Rainwise IP-100,2013-02-24 17:26:00,
2013-02-24 11:31:00,62.4,42.0,28.36,South,180,9.6,16.6,47,0.00,,,0.00,Rainwise IP-100,2013-02-24 17:31:00,
2013-02-24 11:36:00,62.7,41.0,28.36,South,180,10.5,17.0,46,0.00,,,0.00,Rainwise IP-100,2013-02-24 17:36:00,
2013-02-24 11:41:00,63.4,42.0,28.36,ESE,112,11.4,16.1,45,0.00,,,0.00,Rainwise IP-100,2013-02-24 17:41:00,
2013-02-24 11:46:00,63.9,42.0,28.35,SSE,157,7.9,17.0,45,0.00,,,0.00,Rainwise IP-100,2013-02-24 17:46:00,
2013-02-24 11:51:00,63.8,42.0,28.35,South,180,7.5,22.4,45,0.00,,,0.00,Rainwise IP-100,2013-02-24 17:51:00,
2013-02-24 11:56:00,63.7,42.0,28.35,South,180,12.6,14.7,45,0.00,,,0.00,Rainwise IP-100,2013-02-24 17:56:00,
2013-02-24 12:01:00,63.7,42.0,28.34,SE,135,11.0,19.1,45,0.00,,,0.00,Rainwise IP-100,2013-02-24 18:01:00,
2013-02-24 12:06:00,63.8,42.0,28.35,South,180,8.9,18.0,45,0.00,,,0.00,Rainwise IP-100,2013-02-24 18:06:00,
2013-02-24 12:11:00,64.0,42.0,28.34,South,180,9.1,14.5,45,0.00,,,0.00,Rainwise IP-100,2013-02-24 18:11:00,
2013-02-24 12:16:00,64.2,41.0,28.34,SSE,157,14.0,15.6,44,0.00,,,0.00,Rainwise IP-100,2013-02-24 18:16:00,
2013-02-24 12:21:00,64.4,42.0,28.34,SSE,157,12.1,18.9,44,0.00,,,0.00,Rainwise IP-100,2013-02-24 18:21:00,
2013-02-24 12:26:00,64.3,42.0,28.34,South,180,14.9,18.2,44,0.00,,,0.00,Rainwise IP-100,2013-02-24 18:26:00,
2013-02-24 12:31:00,64.5,42.0,28.33,SSE,157,8.4,17.5,44,0.00,,,0.00,Rainwise IP-100,2013-02-24 18:31:00,
2013-02-24 12:36:00,64.6,42.0,28.33,SSE,157,11.7,17.5,44,0.00,,,0.00,Rainwise IP-100,2013-02-24 18:36:00,
2013-02-24 12:41:00,64.8,42.0,28.32,SSE,157,11.9,14.9,44,0.00,,,0.00,Rainwise IP-100,2013-02-24 18:41:00,
2013-02-24 12:46:00,64.9,42.0,28.32,SSE,157,5.8,17.7,44,0.00,,,0.00,Rainwise IP-100,2013-02-24 18:46:00,
2013-02-24 12:51:00,65.2,42.0,28.32,SE,135,6.1,18.0,44,0.00,,,0.00,Rainwise IP-100,2013-02-24 18:51:00,
2013-02-24 12:56:00,65.7,43.0,28.32,SSE,157,10.7,17.3,44,0.00,,,0.00,Rainwise IP-100,2013-02-24 18:56:00,
2013-02-24 13:01:00,66.1,43.0,28.31,SSE,157,12.1,17.3,43,0.00,,,0.00,Rainwise IP-100,2013-02-24 19:01:00,
2013-02-24 13:06:00,66.5,43.0,28.31,SE,135,10.0,17.3,43,0.00,,,0.00,Rainwise IP-100,2013-02-24 19:06:00,
2013-02-24 13:11:00,66.8,43.0,28.30,SSE,157,10.5,13.5,43,0.00,,,0.00,Rainwise IP-100,2013-02-24 19:11:00,
2013-02-24 13:16:00,67.1,43.0,28.29,SSE,157,11.2,14.2,42,0.00,,,0.00,Rainwise IP-100,2013-02-24 19:16:00,
2013-02-24 13:21:00,67.1,43.0,28.29,SSE,157,10.3,18.2,42,0.00,,,0.00,Rainwise IP-100,2013-02-24 19:21:00,
2013-02-24 13:26:00,67.4,44.0,28.28,SE,135,13.3,17.3,42,0.00,,,0.00,Rainwise IP-100,2013-02-24 19:26:00,
2013-02-24 13:31:00,67.9,44.0,28.28,SSE,157,10.0,15.4,42,0.00,,,0.00,Rainwise IP-100,2013-02-24 19:31:00,
2013-02-24 13:36:00,68.3,44.0,28.28,South,180,9.3,14.5,41,0.00,,,0.00,Rainwise IP-100,2013-02-24 19:36:00,
2013-02-24 13:41:00,68.8,44.0,28.27,SE,135,10.0,16.1,41,0.00,,,0.00,Rainwise IP-100,2013-02-24 19:41:00,
2013-02-24 13:46:00,69.2,44.0,28.27,SSE,157,9.6,15.2,40,0.00,,,0.00,Rainwise IP-100,2013-02-24 19:46:00,
2013-02-24 13:51:00,69.4,44.0,28.27,SSE,157,8.4,15.2,40,0.00,,,0.00,Rainwise IP-100,2013-02-24 19:51:00,
2013-02-24 13:56:00,69.5,43.0,28.26,SSE,157,5.6,16.1,39,0.00,,,0.00,Rainwise IP-100,2013-02-24 19:56:00,
2013-02-24 14:02:00,69.8,43.0,28.26,SSE,157,5.8,16.1,39,0.00,,,0.00,Rainwise IP-100,2013-02-24 20:02:00,
2013-02-24 14:07:00,69.9,44.0,28.25,ESE,112,10.0,14.0,39,0.00,,,0.00,Rainwise IP-100,2013-02-24 20:07:00,
2013-02-24 14:12:00,70.1,44.0,28.25,SE,135,2.6,15.2,39,0.00,,,0.00,Rainwise IP-100,2013-02-24 20:12:00,
2013-02-24 14:17:00,70.6,44.0,28.25,ESE,112,3.7,17.7,38,0.00,,,0.00,Rainwise IP-100,2013-02-24 20:17:00,
2013-02-24 14:22:00,71.1,44.0,28.24,SSE,157,6.3,15.6,38,0.00,,,0.00,Rainwise IP-100,2013-02-24 20:22:00,
2013-02-24 14:27:00,71.3,44.0,28.24,ESE,112,10.5,16.3,38,0.00,,,0.00,Rainwise IP-100,2013-02-24 20:27:00,
2013-02-24 14:32:00,71.7,44.0,28.24,SSE,157,7.7,14.9,37,0.00,,,0.00,Rainwise IP-100,2013-02-24 20:32:00,
2013-02-24 14:37:00,72.3,45.0,28.23,SE,135,5.8,15.6,37,0.00,,,0.00,Rainwise IP-100,2013-02-24 20:37:00,
2013-02-24 14:42:00,72.4,44.0,28.22,SE,135,13.3,13.3,36,0.00,,,0.00,Rainwise IP-100,2013-02-24 20:42:00,
2013-02-24 14:47:00,72.2,44.0,28.22,SSE,157,11.7,16.3,36,0.00,,,0.00,Rainwise IP-100,2013-02-24 20:47:00,
2013-02-24 14:52:00,72.3,44.0,28.22,SSE,157,4.9,15.4,36,0.00,,,0.00,Rainwise IP-100,2013-02-24 20:52:00,
2013-02-24 14:57:00,72.5,44.0,28.22,ESE,112,10.7,16.6,36,0.00,,,0.00,Rainwise IP-100,2013-02-24 20:57:00,
2013-02-24 15:02:00,72.6,44.0,28.22,SSE,157,14.9,19.1,36,0.00,,,0.00,Rainwise IP-100,2013-02-24 21:02:00,
2013-02-24 15:07:00,72.7,44.0,28.22,South,180,12.4,19.1,36,0.00,,,0.00,Rainwise IP-100,2013-02-24 21:07:00,
2013-02-24 15:12:00,72.7,44.0,28.22,SE,135,6.1,19.1,36,0.00,,,0.00,Rainwise IP-100,2013-02-24 21:12:00,
2013-02-24 15:17:00,72.5,44.0,28.22,SSE,157,7.2,12.8,36,0.00,,,0.00,Rainwise IP-100,2013-02-24 21:17:00,
2013-02-24 15:22:00,72.6,44.0,28.21,SSE,157,10.0,16.8,36,0.00,,,0.00,Rainwise IP-100,2013-02-24 21:22:00,
2013-02-24 15:27:00,72.8,44.0,28.21,East,90,7.2,14.0,36,0.00,,,0.00,Rainwise IP-100,2013-02-24 21:27:00,
2013-02-24 15:32:00,72.4,44.0,28.21,SSE,157,10.0,14.2,36,0.00,,,0.00,Rainwise IP-100,2013-02-24 21:32:00,
2013-02-24 15:37:00,72.2,44.0,28.20,SE,135,9.8,14.5,36,0.00,,,0.00,Rainwise IP-100,2013-02-24 21:37:00,
2013-02-24 15:42:00,72.7,45.0,28.20,SSW,202,10.5,14.7,37,0.00,,,0.00,Rainwise IP-100,2013-02-24 21:42:00,
2013-02-24 15:47:00,72.7,45.0,28.19,SE,135,10.0,18.7,37,0.00,,,0.00,Rainwise IP-100,2013-02-24 21:47:00,
2013-02-24 15:52:00,72.6,45.0,28.19,SSE,157,16.6,16.6,37,0.00,,,0.00,Rainwise IP-100,2013-02-24 21:52:00,
2013-02-24 15:57:00,72.7,45.0,28.19,SE,135,7.9,16.6,37,0.00,,,0.00,Rainwise IP-100,2013-02-24 21:57:00,
2013-02-24 16:02:00,72.8,45.0,28.19,ESE,112,7.0,17.5,37,0.00,,,0.00,Rainwise IP-100,2013-02-24 22:02:00,
2013-02-24 16:07:00,72.7,45.0,28.18,SSE,157,4.0,14.2,37,0.00,,,0.00,Rainwise IP-100,2013-02-24 22:07:00,
2013-02-24 16:12:00,72.7,45.0,28.18,SE,135,6.1,20.5,37,0.00,,,0.00,Rainwise IP-100,2013-02-24 22:12:00,
2013-02-24 16:17:00,73.2,46.0,28.18,SSE,157,10.7,16.3,37,0.00,,,0.00,Rainwise IP-100,2013-02-24 22:17:00,
2013-02-24 16:22:00,73.2,46.0,28.18,ESE,112,11.2,17.7,37,0.00,,,0.00,Rainwise IP-100,2013-02-24 22:22:00,
2013-02-24 16:27:00,72.9,45.0,28.18,South,180,4.9,18.2,37,0.00,,,0.00,Rainwise IP-100,2013-02-24 22:27:00,
2013-02-24 16:32:00,72.7,46.0,28.19,SE,135,7.7,15.4,38,0.00,,,0.00,Rainwise IP-100,2013-02-24 22:32:00,
2013-02-24 16:37:00,72.6,46.0,28.18,ESE,112,19.8,21.2,38,0.00,,,0.00,Rainwise IP-100,2013-02-24 22:37:00,
2013-02-24 16:42:00,72.3,46.0,28.18,SSE,157,10.3,20.8,39,0.00,,,0.00,Rainwise IP-100,2013-02-24 22:42:00,
2013-02-24 16:47:00,72.1,46.0,28.18,ESE,112,11.2,18.9,39,0.00,,,0.00,Rainwise IP-100,2013-02-24 22:47:00,
2013-02-24 16:52:00,72.0,46.0,28.18,SE,135,7.2,21.5,39,0.00,,,0.00,Rainwise IP-100,2013-02-24 22:52:00,
2013-02-24 16:57:00,72.1,46.0,28.18,SE,135,16.3,16.3,39,0.00,,,0.00,Rainwise IP-100,2013-02-24 22:57:00,
2013-02-24 17:02:00,72.0,46.0,28.19,South,180,9.1,16.8,39,0.00,,,0.00,Rainwise IP-100,2013-02-24 23:02:00,
2013-02-24 17:07:00,71.8,45.0,28.18,SE,135,7.7,21.2,39,0.00,,,0.00,Rainwise IP-100,2013-02-24 23:07:00,
2013-02-24 17:12:00,71.7,46.0,28.18,SSE,157,7.5,22.9,40,0.00,,,0.00,Rainwise IP-100,2013-02-24 23:12:00,
2013-02-24 17:17:00,71.6,46.0,28.18,ESE,112,2.6,16.1,40,0.00,,,0.00,Rainwise IP-100,2013-02-24 23:17:00,
2013-02-24 17:22:00,71.4,46.0,28.17,SSE,157,13.1,17.5,40,0.00,,,0.00,Rainwise IP-100,2013-02-24 23:22:00,
2013-02-24 17:27:00,71.2,46.0,28.17,SSE,157,13.1,18.7,40,0.00,,,0.00,Rainwise IP-100,2013-02-24 23:27:00,
2013-02-24 17:32:00,71.1,45.0,28.18,SE,135,7.9,17.5,40,0.00,,,0.00,Rainwise IP-100,2013-02-24 23:32:00,
2013-02-24 17:37:00,71.0,46.0,28.17,ESE,112,10.5,14.9,41,0.00,,,0.00,Rainwise IP-100,2013-02-24 23:37:00,
2013-02-24 17:42:00,70.9,46.0,28.17,SE,135,18.4,18.4,41,0.00,,,0.00,Rainwise IP-100,2013-02-24 23:42:00,
2013-02-24 17:47:00,70.7,46.0,28.17,South,180,8.9,19.4,41,0.00,,,0.00,Rainwise IP-100,2013-02-24 23:47:00,
2013-02-24 17:52:00,70.5,47.0,28.17,SE,135,7.7,18.2,42,0.00,,,0.00,Rainwise IP-100,2013-02-24 23:52:00,
2013-02-24 17:57:00,70.1,46.0,28.17,SE,135,8.4,19.4,42,0.00,,,0.00,Rainwise IP-100,2013-02-24 23:57:00,
2013-02-24 18:02:00,69.8,46.0,28.18,ESE,112,11.4,18.0,43,0.00,,,0.00,Rainwise IP-100,2013-02-25 00:02:00,
2013-02-24 18:07:00,69.4,47.0,28.17,SSE,157,7.5,17.0,44,0.00,,,0.00,Rainwise IP-100,2013-02-25 00:07:00,
2013-02-24 18:12:00,68.9,46.0,28.18,SE,135,12.8,21.0,44,0.00,,,0.00,Rainwise IP-100,2013-02-25 00:12:00,
2013-02-24 18:17:00,68.3,47.0,28.18,SSE,157,14.9,20.5,45,0.00,,,0.00,Rainwise IP-100,2013-02-25 00:17:00,
2013-02-24 18:22:00,67.9,47.0,28.18,SE,135,7.5,18.4,46,0.00,,,0.00,Rainwise IP-100,2013-02-25 00:22:00,
2013-02-24 18:27:00,67.5,46.0,28.19,ESE,112,7.5,17.0,46,0.00,,,0.00,Rainwise IP-100,2013-02-25 00:27:00,
2013-02-24 18:32:00,67.1,46.0,28.19,ESE,112,11.7,19.8,46,0.00,,,0.00,Rainwise IP-100,2013-02-25 00:32:00,
2013-02-24 18:37:00,66.8,46.0,28.19,ESE,112,4.4,13.5,47,0.00,,,0.00,Rainwise IP-100,2013-02-25 00:37:00,
2013-02-24 18:42:00,66.3,46.0,28.19,SE,135,5.4,11.4,47,0.00,,,0.00,Rainwise IP-100,2013-02-25 00:42:00,
2013-02-24 18:47:00,65.9,46.0,28.19,SE,135,9.1,14.2,48,0.00,,,0.00,Rainwise IP-100,2013-02-25 00:47:00,
2013-02-24 18:52:00,65.7,45.0,28.19,SE,135,7.7,12.6,48,0.00,,,0.00,Rainwise IP-100,2013-02-25 00:52:00,
2013-02-24 18:57:00,65.4,46.0,28.20,ESE,112,8.6,17.5,49,0.00,,,0.00,Rainwise IP-100,2013-02-25 00:57:00,
2013-02-24 19:02:00,65.3,46.0,28.20,SE,135,4.9,14.5,49,0.00,,,0.00,Rainwise IP-100,2013-02-25 01:02:00,
2013-02-24 19:07:00,65.0,46.0,28.21,SSE,157,7.2,12.4,50,0.00,,,0.00,Rainwise IP-100,2013-02-25 01:07:00,
2013-02-24 19:12:00,64.8,47.0,28.20,SE,135,10.7,13.5,51,0.00,,,0.00,Rainwise IP-100,2013-02-25 01:12:00,
2013-02-24 19:17:00,64.7,47.0,28.21,ESE,112,6.3,15.9,52,0.00,,,0.00,Rainwise IP-100,2013-02-25 01:17:00,
2013-02-24 19:22:00,64.5,47.0,28.20,SSE,157,9.8,13.5,53,0.00,,,0.00,Rainwise IP-100,2013-02-25 01:22:00,
2013-02-24 19:27:00,64.3,47.0,28.21,ESE,112,7.9,14.7,53,0.00,,,0.00,Rainwise IP-100,2013-02-25 01:27:00,
2013-02-24 19:32:00,64.1,47.0,28.21,SE,135,13.3,13.3,54,0.00,,,0.00,Rainwise IP-100,2013-02-25 01:32:00,
2013-02-24 19:37:00,63.9,47.5,28.21,SE,135,10.0,13.3,55,0.00,,,0.00,Rainwise IP-100,2013-02-25 01:37:00,
2013-02-24 19:42:00,63.7,47.0,28.20,SSE,157,4.7,13.1,55,0.00,,,0.00,Rainwise IP-100,2013-02-25 01:42:00,
2013-02-24 19:47:00,63.5,47.5,28.20,SE,135,4.9,12.8,56,0.00,,,0.00,Rainwise IP-100,2013-02-25 01:47:00,
2013-02-24 19:52:00,63.3,47.5,28.20,SE,135,9.6,12.1,56,0.00,,,0.00,Rainwise IP-100,2013-02-25 01:52:00,
2013-02-24 19:57:00,63.1,47.5,28.19,SE,135,7.0,16.3,57,0.00,,,0.00,Rainwise IP-100,2013-02-25 01:57:00,
2013-02-24 20:02:00,62.8,47.5,28.20,ESE,112,6.1,19.8,57,0.00,,,0.00,Rainwise IP-100,2013-02-25 02:02:00,
2013-02-24 20:07:00,62.6,47.5,28.19,SSE,157,12.1,13.3,58,0.00,,,0.00,Rainwise IP-100,2013-02-25 02:07:00,
2013-02-24 20:12:00,62.5,47.5,28.19,East,90,9.8,14.7,58,0.00,,,0.00,Rainwise IP-100,2013-02-25 02:12:00,
2013-02-24 20:17:00,62.3,48.0,28.19,SE,135,8.4,11.7,59,0.00,,,0.00,Rainwise IP-100,2013-02-25 02:17:00,
2013-02-24 20:22:00,62.1,48.0,28.19,ESE,112,8.2,14.0,60,0.00,,,0.00,Rainwise IP-100,2013-02-25 02:22:00,
2013-02-24 20:27:00,62.0,48.0,28.18,SE,135,7.0,13.1,61,0.00,,,0.00,Rainwise IP-100,2013-02-25 02:27:00,
2013-02-24 20:32:00,61.9,48.0,28.19,ESE,112,6.1,15.2,61,0.00,,,0.00,Rainwise IP-100,2013-02-25 02:32:00,
2013-02-24 20:37:00,61.7,48.0,28.18,ESE,112,7.9,14.0,62,0.00,,,0.00,Rainwise IP-100,2013-02-25 02:37:00,
2013-02-24 20:42:00,61.6,49.0,28.18,SSE,157,9.8,14.0,63,0.00,,,0.00,Rainwise IP-100,2013-02-25 02:42:00,
2013-02-24 20:47:00,61.6,49.0,28.18,SE,135,9.1,15.2,64,0.00,,,0.00,Rainwise IP-100,2013-02-25 02:47:00,
2013-02-24 20:52:00,61.6,50.0,28.17,SE,135,8.4,15.2,66,0.00,,,0.00,Rainwise IP-100,2013-02-25 02:52:00,
2013-02-24 20:57:00,61.6,50.0,28.18,SSE,157,4.7,11.9,66,0.00,,,0.00,Rainwise IP-100,2013-02-25 02:57:00,
2013-02-24 21:02:00,61.4,50.5,28.18,SE,135,6.3,14.9,67,0.00,,,0.00,Rainwise IP-100,2013-02-25 03:02:00,
2013-02-24 21:07:00,61.2,50.0,28.18,ESE,112,5.6,11.9,67,0.00,,,0.00,Rainwise IP-100,2013-02-25 03:07:00,
2013-02-24 21:12:00,60.9,50.0,28.17,East,90,7.5,17.3,67,0.00,,,0.00,Rainwise IP-100,2013-02-25 03:12:00,
2013-02-24 21:17:00,60.8,50.0,28.17,ESE,112,8.9,13.8,67,0.00,,,0.00,Rainwise IP-100,2013-02-25 03:17:00,
2013-02-24 21:22:00,60.8,50.5,28.17,SE,135,8.4,13.3,68,0.00,,,0.00,Rainwise IP-100,2013-02-25 03:22:00,
2013-02-24 21:27:00,60.8,50.5,28.16,SE,135,5.8,17.3,69,0.00,,,0.00,Rainwise IP-100,2013-02-25 03:27:00,
2013-02-24 21:32:00,60.8,51.0,28.16,ESE,112,11.0,15.2,70,0.00,,,0.00,Rainwise IP-100,2013-02-25 03:32:00,
2013-02-24 21:37:00,60.6,51.0,28.16,ESE,112,5.8,15.4,71,0.00,,,0.00,Rainwise IP-100,2013-02-25 03:37:00,
2013-02-24 21:42:00,60.6,51.0,28.17,SE,135,2.3,14.0,71,0.00,,,0.00,Rainwise IP-100,2013-02-25 03:42:00,
2013-02-24 21:47:00,60.8,52.0,28.16,ESE,112,8.9,14.0,72,0.00,,,0.00,Rainwise IP-100,2013-02-25 03:47:00,
2013-02-24 21:52:00,60.8,52.0,28.14,ESE,112,9.8,18.7,73,0.00,,,0.00,Rainwise IP-100,2013-02-25 03:52:00,
2013-02-24 21:57:00,60.8,52.0,28.14,SE,135,11.7,17.7,73,0.00,,,0.00,Rainwise IP-100,2013-02-25 03:57:00,
2013-02-24 22:02:00,60.7,52.0,28.14,South,180,13.3,18.2,74,0.00,,,0.00,Rainwise IP-100,2013-02-25 04:02:00,
2013-02-24 22:07:00,60.7,53.0,28.14,SE,135,10.3,18.2,75,0.00,,,0.00,Rainwise IP-100,2013-02-25 04:07:00,
2013-02-24 22:12:00,60.8,53.5,28.14,ESE,112,7.0,19.4,75,0.00,,,0.00,Rainwise IP-100,2013-02-25 04:12:00,
2013-02-24 22:17:00,60.9,53.5,28.14,ESE,112,8.4,18.9,75,0.00,,,0.00,Rainwise IP-100,2013-02-25 04:17:00,
2013-02-24 22:22:00,61.0,53.5,28.14,SSE,157,7.0,17.0,75,0.00,,,0.00,Rainwise IP-100,2013-02-25 04:22:00,
2013-02-24 22:27:00,61.1,53.5,28.14,SE,135,8.2,20.5,75,0.00,,,0.00,Rainwise IP-100,2013-02-25 04:27:00,
2013-02-24 22:32:00,61.3,53.5,28.14,SSE,157,9.1,12.4,75,0.00,,,0.00,Rainwise IP-100,2013-02-25 04:32:00,
2013-02-24 22:37:00,61.4,53.5,28.13,SE,135,14.0,14.0,75,0.00,,,0.00,Rainwise IP-100,2013-02-25 04:37:00,
2013-02-24 22:42:00,61.4,53.5,28.13,SSE,157,7.7,15.9,75,0.00,,,0.00,Rainwise IP-100,2013-02-25 04:42:00,
2013-02-24 22:47:00,61.4,53.5,28.14,SE,135,7.9,19.4,75,0.00,,,0.00,Rainwise IP-100,2013-02-25 04:47:00,
2013-02-24 22:52:00,61.3,53.5,28.13,ESE,112,6.5,17.0,75,0.00,,,0.00,Rainwise IP-100,2013-02-25 04:52:00,
2013-02-24 22:57:00,61.3,54.0,28.13,SSE,157,10.5,14.9,76,0.00,,,0.00,Rainwise IP-100,2013-02-25 04:57:00,
2013-02-24 23:00:00,61.3,54.0,28.13,SE,135,7.2,14.9,76,0.00,,,0.00,Rainwise IP-100,2013-02-25 05:00:00,
2013-02-24 23:05:00,61.3,54.0,28.13,SSE,157,11.4,18.7,76,0.00,,,0.00,Rainwise IP-100,2013-02-25 05:05:00,
2013-02-24 23:10:00,61.3,54.0,28.12,ESE,112,21.9,21.9,77,0.00,,,0.00,Rainwise IP-100,2013-02-25 05:10:00,
2013-02-24 23:15:00,61.2,54.0,28.13,South,180,12.6,21.9,78,0.00,,,0.00,Rainwise IP-100,2013-02-25 05:15:00,
2013-02-24 23:20:00,61.2,54.0,28.12,SSE,157,10.5,18.9,78,0.00,,,0.00,Rainwise IP-100,2013-02-25 05:20:00,
2013-02-24 23:25:00,61.0,54.5,28.12,South,180,10.7,14.5,79,0.00,,,0.00,Rainwise IP-100,2013-02-25 05:25:00,
2013-02-24 23:30:00,61.0,54.5,28.13,SE,135,8.6,14.9,79,0.00,,,0.00,Rainwise IP-100,2013-02-25 05:30:00,
2013-02-24 23:35:00,61.0,54.5,28.12,ESE,112,11.0,17.5,80,0.00,,,0.00,Rainwise IP-100,2013-02-25 05:35:00,
2013-02-24 23:40:00,60.9,54.5,28.12,SSE,157,9.3,15.9,80,0.00,,,0.00,Rainwise IP-100,2013-02-25 05:40:00,
2013-02-24 23:45:00,60.9,55.0,28.11,SE,135,12.4,17.3,81,0.00,,,0.00,Rainwise IP-100,2013-02-25 05:45:00,
2013-02-24 23:50:00,61.0,55.0,28.11,SSE,157,15.6,17.7,81,0.00,,,0.00,Rainwise IP-100,2013-02-25 05:50:00,
2013-02-24 23:55:00,61.0,55.0,28.11,SSE,157,7.2,17.0,81,0.00,,,0.00,Rainwise IP-100,2013-02-25 05:55:00,